Tracking 18624 objects as of 30-April-2017
HD Live streaming from Space Station
objects crossing your sky now

BEESAT 4

Track BEESAT 4 now!
10-day predictions
BEESAT 4 is classified as:


NORAD ID: 41619
Int'l Code: 2016-040W
Perigee: 503.8 km
Apogee: 518.8 km
Inclination: 97.5 °
Period: 94.7 minutes
Semi major axis: 6882 km
RCS: Unknown
Launch date: June 22, 2016
Source: Germany (GER)
Launch site: SIRHARIKOTA (SRI)
Uplink (MHz):
Downlink (MHz): 435.950
Beacon (MHz): 435.950
Mode: 4800bps GMSK CW
Call sign: DP0BEH
Status: Active

Your satellite tracking list
Your tracking list is empty





NASA's NSSDC Master Catalog

Two Line Element Set (TLE):
1 41619U 16040W   17119.69441101 +.00002211 +00000-0 +10406-3 0  9997
2 41619 097.4660 182.5434 0010877 232.3814 127.6434 15.20567360035222
Source of the keplerian elements: AFSPC